IRIDIUM 55 [-] (25272 NORAD) Tracking and Keplerian Element Data

This shows tracking and keplerian element data for the satellite.

Feedback or suggestion? Click here.




ElementValue
Catalog25272
NameIRIDIUM 55 [-]
Epoch Orbit9994
Epoch Day90.02225584
Epoch Year2019
RAAN13.6058
Inclination86.6812
Eccentricity0.0074982
Argument of Perigee116.7376
Mean Anonmoly244.8729
Mean Motion16.34393185
Decay Rate0.15469727
L11 25272U 98019A 19090.02225584 .15469727 -19946-5 38761-3 0 9996
L22 25272 86.6812 13.6058 0074982 116.7376 244.8729 16.34393185 99945



Live tracking and technical data element details for IRIDIUM 55 [-] (NORAD 25272). IRIDIUM 55 [-] can be tracked NOW for your location showing map with azimuth and elevation plus other details from your city location.







IsCatalogInMostPopularTable: catalog: 25272, numindb: 416
Update: records affected: 1



GetName: 25272 IRIDIUM 55 [-]

Hit Count: updated at: Fri, 16 May 2025 11:23:46 GMT